Weather History for KMEH - January, 2014

Change the Weather History Date:

Tuesday, January 28, 2014

  Actual Average Record
Temperature  
Mean Temperature 26 °F -  
Max Temperature 36 °F 35 °F 48 °F (1998)
Min Temperature 16 °F 20 °F -14 °F (2002)
Degree Days  
Heating Degree Days 39    
Moisture  
Dew Point 21 °F    
Average Humidity 76    
Maximum Humidity 92    
Minimum Humidity 59    
Precipitation  
Precipitation 0.10 in - - ()
Sea Level Pressure  
Sea Level Pressure 30.26 in    
Wind  
Wind Speed 0 mph (North)    
Max Wind Speed 0 mph    
Max Gust Speed -    
Visibility 10 miles    
Events Rain    
Averages and records for this station are not official NWS values.
T = Trace of Precipitation, MM = Missing Value Source: NWS Daily Summary

Daily Weather History Graph

Daily Weather History Graph

Search for Another Location

Airport or City:

Trip Planner

Search our weather history database for the weather conditions in past years. The results will help you decide how hot, cold, wet, or windy it might be!

Date:

Astronomy

Jan. 28, 2014 Rise Set
Actual Time 7:19 AM PST 4:54 PM PST
Civil Twilight 6:47 AM PST 5:26 PM PST
Nautical Twilight 6:11 AM PST 6:02 PM PST
Astronomical Twilight 5:36 AM PST 6:37 PM PST
Moon 5:07 AM PST (1/28) 2:48 PM PST (1/28)
Length of Visible Light 10h 39m
Length of Day
9h 35m
Waning Crescent, 6% of the Moon is Illuminated
Jan 28
Waning Crescent
Jan 30
New
Feb 6
First Quarter
Feb 14
Full
Feb 22
Last Quarter

Hourly Weather History & Observations

Time (PST) Temp. Dew Point Humidity Pressure Visibility Wind Dir Wind Speed Gust Speed Precip Events Conditions
12:56 AM 19.0 °F 16.0 °F 88% 30.36 in 10.0 mi Calm Calm - N/A   Clear
1:56 AM 17.1 °F 12.9 °F 84% 30.39 in 10.0 mi Calm Calm - N/A   Clear
2:56 AM 16.0 °F 12.0 °F 84% 30.39 in 10.0 mi Calm Calm - N/A   Clear
3:56 AM 16.0 °F 12.0 °F 84% 30.36 in 10.0 mi Calm Calm - N/A   Clear
4:56 AM 16.0 °F 10.9 °F 81% 30.36 in 10.0 mi Calm Calm - N/A   Clear
5:56 AM 17.1 °F 12.0 °F 81% 30.36 in 10.0 mi Calm Calm - N/A   Clear
6:56 AM 18.0 °F 14.0 °F 84% 30.34 in 10.0 mi Calm Calm - N/A   Mostly Cloudy
7:56 AM 19.9 °F 15.1 °F 81% 30.35 in 10.0 mi Calm Calm - N/A   Mostly Cloudy
8:56 AM 26.1 °F 21.9 °F 84% 30.34 in 10.0 mi Calm Calm - N/A   Overcast
9:56 AM 30.0 °F 21.9 °F 72% 30.33 in 10.0 mi Calm Calm - N/A   Overcast
10:56 AM 30.9 °F 21.0 °F 67% 30.34 in 10.0 mi Calm Calm - N/A   Overcast
11:56 AM 34.0 °F 23.0 °F 64% 30.30 in 10.0 mi Calm Calm - N/A   Overcast
12:56 PM 36.0 °F 23.0 °F 59% 30.28 in 10.0 mi Calm Calm - N/A   Overcast
1:56 PM 36.0 °F 23.0 °F 59% 30.26 in 10.0 mi Calm Calm - N/A   Overcast
2:56 PM 35.1 °F 24.1 °F 64% 30.25 in 10.0 mi Calm Calm - N/A   Overcast
3:56 PM 35.1 °F 23.0 °F 61% 30.25 in 10.0 mi Calm Calm - N/A   Clear
4:56 PM 34.0 °F 23.0 °F 64% 30.25 in 10.0 mi Calm Calm - N/A   Overcast
5:56 PM 33.1 °F 23.0 °F 66% 30.23 in 10.0 mi Calm Calm - N/A   Mostly Cloudy
6:56 PM 33.1 °F 23.0 °F 66% 30.22 in 10.0 mi Calm Calm - N/A   Mostly Cloudy
7:56 PM 33.1 °F 23.0 °F 66% 30.18 in 10.0 mi Calm Calm - N/A   Overcast
8:56 PM 33.1 °F 26.1 °F 75% 30.15 in 10.0 mi Calm Calm - 0.00 in Rain Light Rain
9:56 PM 32.0 °F 28.0 °F 85% 30.12 in 7.0 mi Calm Calm - 0.03 in   Overcast
10:04 PM 32.0 °F 28.9 °F 88% 30.04 in 8.0 mi Calm Calm - 0.00 in Rain Light Freezing Rain
10:56 PM 33.1 °F 30.0 °F 89% 30.09 in 6.0 mi Calm Calm - 0.03 in Rain Light Freezing Rain
11:56 PM 33.1 °F 30.9 °F 92% 30.03 in 9.0 mi Calm Calm - 0.04 in Rain Light Freezing Rain